This is the latest recevied weather packets stored in our database for station/object K7TSD. If no packets are shown the sender has not sent any weather packets the latest 10 day(s).
| Time | Temp. | Humidity | Pressure | Rain* | Wind** | Luminosity | Snow |
|---|---|---|---|---|---|---|---|
| 1778150070 | 8.89° C | 46% | 1008.5 hPa | 0 mm | - | 0 W/m² | - |
| 1778149766 | 8.33° C | 48% | 1008.5 hPa | 0 mm | - | 0 W/m² | - |
| 1778149463 | 8.33° C | 48% | 1008.1 hPa | 0 mm | - | 0 W/m² | - |
| 1778149160 | 8.89° C | 47% | 1008.4 hPa | 0 mm | - | 0 W/m² | - |
| 1778148855 | 8.89° C | 47% | 1008.2 hPa | 0 mm | - | 0 W/m² | - |
| 1778148552 | 7.22° C | 49% | 1008.2 hPa | 0 mm | - | 0 W/m² | - |
| 1778148249 | 7.22° C | 51% | 1008.4 hPa | 0 mm | - | 0 W/m² | - |
| 1778147948 | 6.67° C | 49% | 1008.5 hPa | 0 mm | - | 0 W/m² | - |
| 1778147644 | 6.11° C | 52% | 1008.1 hPa | 0 mm | - | 0 W/m² | - |
| 1778147341 | 6.67° C | 52% | 1008.4 hPa | 0 mm | - | 0 W/m² | - |
| 1778147038 | 6.11° C | 49% | 1007.8 hPa | 0 mm | - | 0 W/m² | - |
| 1778146735 | 5.56° C | 53% | 1007.9 hPa | 0 mm | - | 0 W/m² | - |
| 1778146433 | 5.56° C | 54% | 1007.8 hPa | 0 mm | - | 0 W/m² | - |
| 1778146131 | 5° C | 55% | 1007.8 hPa | 0 mm | - | 0 W/m² | - |
| 1778145827 | 4.44° C | 54% | 1007.9 hPa | 0 mm | - | 0 W/m² | - |
| 1778145523 | 5° C | 56% | 1007.9 hPa | 0 mm | - | 0 W/m² | - |
| 1778145220 | 5° C | 56% | 1007.7 hPa | 0 mm | - | 0 W/m² | - |
| 1778144915 | 4.44° C | 56% | 1007.8 hPa | 0 mm | - | 0 W/m² | - |
| 1778144612 | 3.89° C | 58% | 1007.7 hPa | 0 mm | - | 0 W/m² | - |
| 1778144309 | 3.33° C | 60% | 1007.9 hPa | 0 mm | - | 0 W/m² | - |
| 1778144006 | 3.89° C | 58% | 1007.8 hPa | 0 mm | - | 0 W/m² | - |
| 1778143703 | 3.33° C | 61% | 1008 hPa | 0 mm | - | 0 W/m² | - |
| 1778143399 | 2.78° C | 60% | 1007.8 hPa | 0 mm | - | 0 W/m² | - |
| 1778143097 | 3.89° C | 57% | 1007.8 hPa | 0 mm | - | 0 W/m² | - |
| 1778142793 | 6.11° C | 56% | 1008 hPa | 0 mm | - | 0 W/m² | - |
* Rain latest hour (hover to see other rain measurements)
** Current wind speed in m/s (hover to see current wind gust speed)